N8SHA Weather Reports


Display with metric or nautical units.
time (UTC)temp
F
wind
direction
speed
MPH
gust
MPH
rain 1hr
in
rain 24hr
in
rain mn
in
humidity
%
barometer
mb
20260901045802 75 199 0.0 2.0 0.00 0.00 0.00 90 1015.4
20260901045256 75 142 0.0 3.0 0.00 0.00 0.00 90 1015.4
20260901044752 75 190 2.0 4.0 0.00 0.00 0.00 90 1015.0
20260901044248 75 168 0.0 2.0 0.00 0.00 0.00 89 1015.1
20260901043743 75 258 0.0 5.0 0.00 0.00 0.00 89 1015.3
20260901043239 75 139 0.0 4.0 0.00 0.00 0.00 89 1015.3
20260901042738 75 190 0.0 5.0 0.00 0.00 0.00 89 1015.2
20260901042232 75 208 0.0 3.0 0.00 0.00 0.00 89 1015.2
20260901041729 75 156 2.0 3.0 0.00 0.00 0.00 89 1015.2
20260901041229 75 173 0.0 5.0 0.00 0.00 0.00 89 1015.2
20260901040724 75 223 3.0 5.0 0.00 0.00 0.00 89 1015.4
20260901040222 75 212 3.0 4.0 0.00 0.00 0.00 88 1015.2
20260901035720 75 212 2.0 5.0 0.00 0.08 0.08 89 1015.3
20260901035215 75 157 0.0 3.0 0.00 0.08 0.08 89 1015.2
20260901034714 75 307 1.0 3.0 0.00 0.08 0.08 88 1015.2
20260901034209 75 184 0.0 4.0 0.00 0.08 0.08 88 1015.1
20260901033708 75 273 0.0 7.0 0.00 0.08 0.08 88 1015.2
20260901033202 75 220 3.0 9.0 0.00 0.08 0.08 89 1015.0
20260901032701 75 245 0.0 3.0 0.00 0.08 0.08 88 1015.3
20260901032155 75 215 1.0 5.0 0.00 0.08 0.08 88 1015.2
20260901031651 75 221 0.0 5.0 0.00 0.08 0.08 88 1015.3
20260901031147 74 188 1.0 4.0 0.00 0.08 0.08 88 1015.3
20260901030646 74 160 1.0 5.0 0.00 0.08 0.08 88 1015.2
20260901030136 74 161 2.0 4.0 0.00 0.08 0.08 88 1015.1
20260901025635 74 159 1.0 3.0 0.00 0.08 0.08 88 1015.3
20260901025125 74 185 2.0 4.0 0.00 0.08 0.08 88 1015.1
20260901024625 74 173 3.0 5.0 0.00 0.08 0.08 87 1015.3
20260901024124 74 145 0.0 5.0 0.00 0.08 0.08 87 1015.1
20260901023623 74 168 3.0 5.0 0.00 0.08 0.08 87 1015.3
20260901023118 74 200 3.0 6.0 0.00 0.08 0.08 87 1015.1
20260901022613 74 166 0.0 2.0 0.00 0.08 0.08 87 1015.2
20260901022108 74 203 2.0 4.0 0.00 0.08 0.08 87 1015.2
20260901021604 74 205 0.0 5.0 0.00 0.08 0.08 86 1015.3
20260901021059 74 241 2.0 4.0 0.00 0.08 0.08 86 1014.9
20260901020554 74 122 2.0 5.0 0.00 0.08 0.08 86 1015.4
20260901020049 74 190 2.0 4.0 0.00 0.08 0.08 86 1015.1
20260901015544 74 210 0.0 3.0 0.00 0.08 0.08 85 1015.4
20260901015039 74 60 0.0 4.0 0.00 0.08 0.08 85 1015.6
20260901014534 74 166 2.0 4.0 0.00 0.08 0.08 85 1015.5
20260901014030 74 176 2.0 3.0 0.00 0.08 0.08 84 1015.4
20260901013526 74 149 0.0 4.0 0.00 0.08 0.08 84 1015.6
20260901013021 74 176 0.0 7.0 0.00 0.08 0.08 83 1015.1
20260901012521 74 177 1.0 4.0 0.00 0.08 0.08 83 1015.1
20260901012016 74 207 1.0 5.0 0.00 0.08 0.08 83 1015.2
20260901011513 74 229 0.0 4.0 0.00 0.08 0.08 83 1015.0
20260901011010 74 177 2.0 4.0 0.00 0.08 0.08 83 1015.1
20260901010506 74 167 2.0 8.0 0.00 0.08 0.08 83 1015.0
20260901010005 74 111 0.0 3.0 0.00 0.08 0.08 82 1015.0
20260901005500 74 265 0.0 4.0 0.00 0.08 0.08 82 1015.0
20260901004955 73 186 1.0 4.0 0.00 0.08 0.08 82 1014.7
20260901004454 73 180 4.0 5.0 0.00 0.08 0.08 82 1014.7
20260901003949 73 200 5.0 9.0 0.00 0.08 0.08 82 1014.7
20260901003444 73 168 0.0 3.0 0.00 0.08 0.08 82 1014.8
20260901002943 73 290 0.0 5.0 0.00 0.08 0.08 82 1014.7
20260901002442 73 166 0.0 4.0 0.00 0.08 0.08 82 1014.6
20260901001937 74 200 0.0 5.0 0.00 0.08 0.08 81 1014.6
20260901001432 74 211 0.0 5.0 0.00 0.08 0.08 81 1014.5
20260901000927 74 348 0.0 6.0 0.00 0.08 0.08 81 1014.5
20260901000422 74 136 0.0 4.0 0.00 0.08 0.08 82 1014.3
20260831235921 74 162 2.0 6.0 0.00 0.08 0.08 82 1014.4
20260831235418 74 154 0.0 4.0 0.00 0.08 0.08 83 1014.5
20260831234917 73 176 0.0 3.0 0.00 0.08 0.08 83 1014.3
20260831234412 73 187 2.0 5.0 0.00 0.08 0.08 84 1014.5
20260831233907 73 190 0.0 3.0 0.00 0.08 0.08 85 1014.4
20260831233402 73 169 1.0 4.0 0.00 0.08 0.08 85 1014.3
20260831232858 73 168 2.0 3.0 0.00 0.08 0.08 86 1014.4
20260831232353 73 169 1.0 3.0 0.00 0.08 0.08 86 1014.5
20260831231849 74 173 2.0 3.0 0.00 0.08 0.08 86 1014.4
20260831231346 74 211 0.0 3.0 0.00 0.08 0.08 85 1014.7
20260831230841 74 154 0.0 2.0 0.00 0.08 0.08 85 1014.4
20260831230335 74 183 2.0 4.0 0.00 0.08 0.08 85 1014.8
20260831225830 74 173 2.0 3.0 0.00 0.08 0.08 85 1014.7
20260831225325 74 302 1.0 2.0 0.00 0.08 0.08 85 1014.9
20260831224820 74 220 0.0 5.0 0.00 0.08 0.08 85 1014.8
20260831224315 74 215 0.0 4.0 0.00 0.08 0.08 84 1014.9
20260831223810 75 190 0.0 3.0 0.00 0.08 0.08 84 1014.9
20260831223306 76 167 1.0 3.0 0.00 0.08 0.08 83 1014.8
20260831222803 76 178 2.0 7.0 0.00 0.08 0.08 83 1014.9
20260831222258 76 185 2.0 8.0 0.00 0.08 0.08 83 1014.8
20260831221753 76 206 2.0 6.0 0.00 0.08 0.08 84 1015.1
20260831221249 75 225 2.0 5.0 0.00 0.08 0.08 87 1015.3
20260831220743 74 194 2.0 5.0 0.00 0.08 0.08 90 1015.3
20260831220239 73 197 2.0 4.0 0.00 0.08 0.08 91 1015.3
20260831215739 72 158 3.0 4.0 0.02 0.08 0.08 92 1015.7
20260831215235 72 155 2.0 3.0 0.00 0.08 0.08 93 1016.0
20260831214731 71 214 0.0 4.0 0.00 0.08 0.08 94 1016.0
20260831214228 72 86 0.0 2.0 0.00 0.08 0.08 94 1016.0
20260831213724 72 70 1.0 2.0 0.00 0.08 0.08 93 1015.8
20260831213220 72 114 0.0 3.0 0.00 0.08 0.08 93 1015.7
20260831212715 72 160 2.0 4.0 0.02 0.08 0.08 93 1015.4
20260831212212 72 138 1.0 3.0 0.00 0.07 0.07 94 1015.7
20260831211710 72 117 0.0 1.0 0.02 0.07 0.07 94 1016.1
20260831211205 73 116 0.0 1.0 0.02 0.07 0.07 93 1016.2
20260831210705 73 121 1.0 1.0 0.02 0.07 0.07 92 1016.3
20260831210201 74 89 0.0 2.0 0.05 0.07 0.07 91 1016.4
20260831205700 75 128 0.0 2.0 0.02 0.07 0.07 89 1016.1
20260831205157 76 187 3.0 4.0 0.02 0.06 0.06 88 1016.4
20260831204651 76 139 2.0 3.0 0.05 0.06 0.06 88 1016.8
20260831204149 76 216 0.0 10.0 0.02 0.06 0.06 89 1016.3
20260831203644 76 89 0.0 0.0 0.00 0.06 0.06 89 1016.4
20260831203144 76 62 0.0 1.0 0.00 0.06 0.06 89 1016.3
20260831202643 77 89 0.0 2.0 0.00 0.06 0.06 88 1016.2
20260831202138 77 23 0.0 2.0 0.00 0.06 0.06 87 1016.0
20260831201637 78 119 0.0 3.0 0.00 0.06 0.06 86 1016.3
20260831201131 78 110 0.0 1.0 0.00 0.06 0.06 86 1016.6
20260831200622 78 129 0.0 2.0 0.00 0.06 0.06 85 1016.5
20260831200121 78 62 0.0 1.0 0.00 0.06 0.06 85 1016.6
20260831195617 78 13 0.0 3.0 0.00 0.06 0.06 84 1016.4
20260831195112 79 32 2.0 3.0 0.00 0.06 0.06 85 1016.3
20260831194607 78 311 0.0 2.0 0.00 0.06 0.06 85 1016.4
20260831194102 78 141 0.0 1.0 0.00 0.06 0.06 86 1016.7
20260831193557 77 75 0.0 2.0 0.00 0.06 0.06 87 1016.7
20260831193052 78 62 0.0 2.0 0.00 0.06 0.06 87 1016.8
20260831192547 77 50 0.0 1.0 0.00 0.06 0.06 88 1016.9
20260831192042 77 62 0.0 1.0 0.00 0.06 0.06 88 1016.8
20260831191538 77 113 0.0 2.0 0.00 0.06 0.06 87 1017.0
20260831191033 77 60 0.0 0.0 0.00 0.06 0.06 86 1017.3
20260831190529 78 37 0.0 0.0 0.00 0.06 0.06 87 1017.1
20260831190027 77 63 0.0 1.0 0.00 0.06 0.06 86 1017.1
20260831185524 78 35 0.0 1.0 0.00 0.06 0.06 86 1017.1
20260831185019 78 84 1.0 2.0 0.00 0.06 0.06 85 1016.8
20260831184519 78 72 2.0 2.0 0.00 0.06 0.06 86 1017.0
20260831184014 78 43 0.0 2.0 0.00 0.06 0.06 84 1016.8
20260831183513 79 66 0.0 2.0 0.00 0.06 0.06 83 1016.7
20260831183013 80 157 3.0 3.0 0.00 0.06 0.06 79 1016.8
20260831182508 81 210 3.0 5.0 0.00 0.06 0.06 77 1016.8
20260831182003 81 162 1.0 4.0 0.00 0.06 0.06 78 1016.7
20260831181458 80 192 0.0 5.0 0.00 0.06 0.06 79 1016.5
20260831180953 80 304 0.0 4.0 0.00 0.06 0.06 82 1016.8
20260831180447 79 172 0.0 2.0 0.00 0.06 0.06 84 1016.7
20260831175947 78 165 0.0 3.0 0.00 0.06 0.06 84 1017.0
20260831175443 78 156 0.0 4.0 0.00 0.06 0.06 84 1017.0
20260831174939 78 206 1.0 3.0 0.00 0.06 0.06 84 1016.8
20260831174434 78 211 0.0 4.0 0.00 0.06 0.06 84 1016.8
20260831173933 78 239 1.0 2.0 0.00 0.06 0.06 83 1016.7
20260831173432 79 184 1.0 4.0 0.00 0.06 0.06 82 1016.9
20260831172928 79 162 0.0 3.0 0.00 0.06 0.06 83 1017.0
20260831172423 77 173 0.0 2.0 0.00 0.06 0.06 86 1016.9
20260831171918 77 144 0.0 2.0 0.00 0.06 0.06 85 1017.3
20260831171414 78 153 0.0 2.0 0.00 0.06 0.06 85 1017.3
20260831170911 79 99 1.0 3.0 0.00 0.06 0.06 83 1017.6
20260831170407 78 164 0.0 4.0 0.00 0.06 0.06 85 1017.5
20260831165903 77 129 0.0 2.0 0.00 0.06 0.06 87 1017.7
20260831165359 77 52 2.0 3.0 0.00 0.06 0.06 89 1017.6
20260831164855 76 196 0.0 3.0 0.00 0.06 0.06 94 1017.8
20260831164351 75 143 0.0 3.0 0.00 0.06 0.06 97 1017.8
20260831163846 73 97 0.0 1.0 0.02 0.06 0.06 97 1017.9
20260831163342 73 116 0.0 1.0 0.02 0.06 0.06 96 1018.0
20260831162840 73 89 0.0 2.0 0.00 0.05 0.05 96 1018.2
20260831162336 72 113 0.0 0.0 0.00 0.05 0.05 96 1018.2
20260831161834 71 103 0.0 1.0 0.02 0.05 0.05 96 1018.2
20260831161331 71 113 1.0 2.0 0.02 0.05 0.05 95 1018.7
20260831160826 71 105 2.0 2.0 0.02 0.05 0.05 94 1019.3
20260831160326 72 75 0.0 1.0 0.07 0.05 0.05 94 1019.2
20260831155820 72 117 0.0 1.0 0.09 0.04 0.04 93 1019.4
20260831155315 72 113 0.0 2.0 0.09 0.03 0.03 92 1019.2
20260831154811 73 79 1.0 2.0 0.12 0.02 0.02 90 1019.3
20260831154308 75 75 0.0 2.0 0.07 0.01 0.01 87 1019.3
20260831153806 76 62 0.0 2.0 0.02 0.00 0.00 85 1019.2
20260831153302 76 50 0.0 2.0 0.00 0.00 0.00 81 1019.0
20260831152758 77 309 0.0 3.0 0.00 0.00 0.00 80 1018.8
20260831152253 77 219 2.0 3.0 0.00 0.00 0.00 78 1018.8
20260831151748 78 284 0.0 2.0 0.00 0.00 0.00 78 1018.6
20260831151247 79 297 0.0 2.0 0.00 0.00 0.00 77 1018.4
20260831150742 79 45 1.0 3.0 0.00 0.00 0.00 76 1018.1
20260831150238 79 211 0.0 4.0 0.00 0.00 0.00 77 1018.2
20260831145737 78 167 0.0 5.0 0.00 0.00 0.00 77 1018.2
20260831145233 78 152 3.0 4.0 0.00 0.00 0.00 78 1018.2
20260831144729 77 40 2.0 3.0 0.00 0.00 0.00 80 1018.0
20260831144225 76 158 2.0 4.0 0.00 0.00 0.00 81 1018.0
20260831143724 75 136 1.0 3.0 0.00 0.00 0.00 82 1017.9
20260831143220 75 172 0.0 2.0 0.00 0.00 0.00 83 1018.0
20260831142716 75 212 0.0 3.0 0.00 0.00 0.00 83 1018.0
20260831142211 75 278 0.0 4.0 0.00 0.00 0.00 83 1017.7
20260831141710 74 193 2.0 3.0 0.00 0.00 0.00 83 1017.6
20260831141205 74 128 0.0 5.0 0.00 0.00 0.00 83 1017.8
20260831140704 74 196 3.0 3.0 0.00 0.00 0.00 84 1017.8
20260831140159 74 245 1.0 3.0 0.00 0.00 0.00 85 1017.8
20260831135657 74 183 2.0 3.0 0.00 0.00 0.00 85 1017.8
20260831135153 74 177 2.0 4.0 0.00 0.00 0.00 86 1017.9
20260831134649 73 161 0.0 2.0 0.00 0.00 0.00 87 1017.9
20260831134144 73 205 2.0 4.0 0.00 0.00 0.00 87 1017.8
20260831133643 73 286 1.0 4.0 0.00 0.00 0.00 87 1017.8
20260831133138 73 160 1.0 4.0 0.00 0.00 0.00 88 1017.9
20260831132634 73 198 1.0 3.0 0.00 0.00 0.00 88 1017.6
20260831132133 73 209 2.0 3.0 0.00 0.00 0.00 88 1017.7
20260831131628 72 141 1.0 3.0 0.00 0.00 0.00 88 1017.6
20260831131125 72 203 1.0 3.0 0.00 0.00 0.00 88 1017.4
20260831130620 72 271 0.0 3.0 0.00 0.00 0.00 88 1017.7
20260831130115 72 202 2.0 3.0 0.00 0.00 0.00 88 1017.5
20260831125613 72 215 0.0 3.0 0.00 0.00 0.00 88 1017.1
20260831125109 72 198 2.0 5.0 0.00 0.00 0.00 88 1017.4
20260831124605 72 226 2.0 3.0 0.00 0.00 0.00 88 1017.5
20260831124101 72 176 2.0 3.0 0.00 0.00 0.00 89 1017.3
20260831123601 72 206 1.0 2.0 0.00 0.00 0.00 89 1017.4
20260831123054 71 187 0.0 2.0 0.00 0.00 0.00 89 1017.1
20260831122549 71 180 0.0 2.0 0.00 0.00 0.00 90 1017.3
20260831122044 71 195 1.0 2.0 0.00 0.00 0.00 90 1017.5
20260831121539 71 183 1.0 2.0 0.00 0.00 0.00 90 1017.3
20260831121035 71 186 0.0 3.0 0.00 0.00 0.00 89 1017.6
20260831120534 71 172 0.0 3.0 0.00 0.00 0.00 89 1017.3
20260831120030 71 200 1.0 3.0 0.00 0.00 0.00 88 1017.1
20260831115526 72 161 0.0 3.0 0.00 0.00 0.00 88 1017.3
20260831115021 71 160 0.0 3.0 0.00 0.00 0.00 88 1017.1
20260831114520 71 210 0.0 2.0 0.00 0.00 0.00 89 1017.3
20260831114016 71 175 0.0 3.0 0.00 0.00 0.00 89 1017.1
20260831113514 71 111 0.0 2.0 0.00 0.00 0.00 89 1017.3
20260831113011 71 142 0.0 2.0 0.00 0.00 0.00 89 1017.5
20260831112509 71 242 2.0 2.0 0.00 0.00 0.00 89 1017.4
20260831112005 71 127 0.0 3.0 0.00 0.00 0.00 89 1017.5
20260831111501 71 186 1.0 2.0 0.00 0.00 0.00 89 1017.3
20260831110956 71 185 0.0 2.0 0.00 0.00 0.00 89 1017.4
20260831110451 71 269 0.0 3.0 0.00 0.00 0.00 89 1017.0
20260831105950 71 228 1.0 3.0 0.00 0.00 0.00 89 1017.4
20260831105445 71 200 0.0 2.0 0.00 0.00 0.00 89 1017.4
20260831104945 71 216 0.0 3.0 0.00 0.00 0.00 89 1017.0
20260831104442 71 235 0.0 3.0 0.00 0.00 0.00 89 1017.4
20260831103937 71 188 2.0 3.0 0.00 0.00 0.00 90 1017.1
20260831103432 71 177 0.0 3.0 0.00 0.00 0.00 90 1017.1
20260831102928 71 229 0.0 3.0 0.00 0.00 0.00 90 1017.1
20260831102428 71 193 0.0 3.0 0.00 0.00 0.00 90 1017.1
20260831101923 71 245 2.0 4.0 0.00 0.00 0.00 91 1017.1
20260831101418 71 247 1.0 3.0 0.00 0.00 0.00 91 1017.4
20260831100914 71 166 0.0 2.0 0.00 0.00 0.00 91 1017.4
20260831100410 71 154 0.0 2.0 0.00 0.00 0.00 91 1017.5
20260831095910 71 157 0.0 2.0 0.00 0.00 0.00 91 1017.6
20260831095409 71 172 0.0 2.0 0.00 0.00 0.00 90 1017.4
20260831094904 71 138 0.0 3.0 0.00 0.00 0.00 90 1017.4
20260831094400 71 162 0.0 3.0 0.00 0.00 0.00 90 1017.0
20260831093856 71 169 1.0 2.0 0.00 0.00 0.00 90 1017.1
20260831093351 71 209 3.0 4.0 0.00 0.00 0.00 90 1017.0
20260831092848 71 171 1.0 3.0 0.00 0.00 0.00 90 1016.8
20260831092343 71 150 0.0 3.0 0.00 0.00 0.00 90 1017.1
20260831091838 71 230 0.0 2.0 0.00 0.00 0.00 90 1017.1
20260831091333 71 191 1.0 3.0 0.00 0.00 0.00 90 1016.9
20260831090828 71 243 0.0 4.0 0.00 0.00 0.00 90 1017.0
20260831090319 71 162 0.0 3.0 0.00 0.00 0.00 90 1017.3
20260831085815 71 162 0.0 2.0 0.00 0.00 0.00 90 1017.3
20260831085309 71 332 0.0 3.0 0.00 0.00 0.00 90 1016.9
20260831084804 71 187 0.0 3.0 0.00 0.00 0.00 90 1017.0
20260831084300 71 118 1.0 4.0 0.00 0.00 0.00 90 1016.9
20260831083756 71 159 1.0 3.0 0.00 0.00 0.00 90 1017.0
20260831083251 71 228 1.0 4.0 0.00 0.00 0.00 90 1016.9
20260831082750 71 238 1.0 2.0 0.00 0.00 0.00 90 1017.0
20260831082245 71 170 2.0 4.0 0.00 0.00 0.00 89 1016.8
20260831081740 71 189 3.0 5.0 0.00 0.00 0.00 89 1016.7
20260831081236 71 199 3.0 4.0 0.00 0.00 0.00 89 1016.9
20260831080731 71 183 3.0 6.0 0.00 0.00 0.00 89 1016.7
20260831080226 71 163 1.0 7.0 0.00 0.00 0.00 89 1016.6
20260831075722 71 217 4.0 7.0 0.00 0.00 0.00 90 1016.7
20260831075217 71 183 1.0 5.0 0.00 0.00 0.00 90 1016.8
20260831074716 71 179 2.0 5.0 0.00 0.00 0.00 90 1016.9
20260831074211 71 182 0.0 3.0 0.00 0.00 0.00 89 1016.9
20260831073707 71 166 2.0 4.0 0.00 0.00 0.00 89 1016.9
20260831073206 71 191 3.0 6.0 0.00 0.00 0.00 89 1017.0
20260831072701 71 180 2.0 5.0 0.00 0.00 0.00 89 1016.9
20260831072157 71 204 2.0 4.0 0.00 0.00 0.00 89 1016.9
20260831071656 71 156 0.0 4.0 0.00 0.00 0.00 88 1016.9
20260831071151 71 206 3.0 5.0 0.00 0.00 0.00 89 1016.9
20260831070651 71 187 2.0 5.0 0.00 0.00 0.00 89 1017.3
20260831070145 71 159 0.0 3.0 0.00 0.00 0.00 90 1017.4
20260831065645 70 197 2.0 5.0 0.00 0.00 0.00 90 1017.1
20260831065143 70 286 0.0 4.0 0.00 0.00 0.00 90 1017.5
20260831064638 70 205 2.0 5.0 0.00 0.00 0.00 91 1017.6
20260831064133 70 216 0.0 3.0 0.00 0.00 0.00 91 1017.5
20260831063630 70 124 0.0 5.0 0.00 0.00 0.00 92 1017.5
20260831063124 70 185 0.0 3.0 0.00 0.00 0.00 92 1017.7
20260831062618 70 180 3.0 3.0 0.00 0.00 0.00 92 1017.9
20260831062113 70 185 0.0 3.0 0.00 0.00 0.00 92 1017.8
20260831061611 70 217 0.0 3.0 0.00 0.00 0.00 92 1017.6
20260831061107 70 200 1.0 3.0 0.00 0.00 0.00 93 1017.7
20260831060603 70 176 0.0 3.0 0.00 0.00 0.00 93 1017.6
20260831060057 70 195 0.0 2.0 0.00 0.00 0.00 92 1017.7
20260831055556 70 167 0.0 2.0 0.00 0.00 0.00 92 1017.7
20260831055053 69 233 1.0 3.0 0.00 0.00 0.00 93 1017.7
20260831054552 69 194 2.0 4.0 0.00 0.00 0.00 93 1017.9
20260831054051 69 172 1.0 3.0 0.00 0.00 0.00 92 1017.6
20260831053549 70 199 0.0 2.0 0.00 0.00 0.00 92 1018.0
20260831053045 70 235 0.0 3.0 0.00 0.00 0.00 92 1018.1
20260831052543 70 21 1.0 3.0 0.00 0.00 0.00 92 1017.9
20260831052038 70 197 0.0 3.0 0.00 0.00 0.00 91 1018.1
20260831051536 70 81 0.0 3.0 0.00 0.00 0.00 91 1017.9
20260831051035 70 168 2.0 5.0 0.00 0.00 0.00 91 1017.8
20260831050530 70 180 2.0 4.0 0.00 0.00 0.00 90 1018.1
20260831050028 70 177 1.0 6.0 0.00 0.00 0.00 90 1018.0